CXA8137 ZSFZ-ZBTJ

Flight info

Callsign CXA8137
Flight time 2h 9m
Altitude 31100
Route BZ81D BZ A470 EMRID W135 DOGVI A470 DPX A593 DALIM W157 AVBOX AVBOX1W
Aircraft B738/M-SDE2E3FGHIRWXY/LB1

Departure

Time 2026-05-07 11:12
Airport Fuzhou Changle International Airport (ZSFZ)

Arrival

Time 2026-05-07 13:21
Airport Tianjin Binhai International Airport (ZBTJ)
Time Latitude Longitude Altitude Speed Heading
2026-05-07 10:53 25.93946 119.67265 55 ft 0 kts
2026-05-07 11:06 25.93962 119.67265 55 ft 5 kts
2026-05-07 11:06 25.93995 119.67277 55 ft 4 kts 26°
2026-05-07 11:06 25.94023 119.67292 55 ft 4 kts 27°
2026-05-07 11:06 25.94055 119.67310 55 ft 6 kts 27°
2026-05-07 11:07 25.94116 119.67342 55 ft 11 kts
2026-05-07 11:07 25.94170 119.67263 55 ft 16 kts 297°
2026-05-07 11:07 25.94229 119.67145 55 ft 13 kts 315°
2026-05-07 11:07 25.94307 119.67152 55 ft 11 kts 26°
2026-05-07 11:08 25.94387 119.67197 55 ft 14 kts 27°
2026-05-07 11:08 25.94474 119.67245 55 ft 14 kts 27°
2026-05-07 11:08 25.94572 119.67301 55 ft 17 kts 27°
2026-05-07 11:08 25.94677 119.67361 55 ft 17 kts 27°
2026-05-07 11:09 25.94784 119.67413 55 ft 15 kts
2026-05-07 11:09 25.94840 119.67352 55 ft 11 kts 297°
2026-05-07 11:09 25.94867 119.67280 55 ft 9 kts 297°
2026-05-07 11:09 25.94893 119.67223 55 ft 7 kts 296°
2026-05-07 11:10 25.94913 119.67174 55 ft 5 kts 282°
2026-05-07 11:10 25.94896 119.67142 55 ft 4 kts 212°
2026-05-07 11:10 25.94871 119.67127 55 ft 3 kts 208°
2026-05-07 11:10 25.94846 119.67114 55 ft 6 kts 207°
2026-05-07 11:11 25.94694 119.67028 55 ft 56 kts 207°
2026-05-07 11:11 25.94132 119.66711 55 ft 122 kts 207°
2026-05-07 11:11 25.93195 119.66186 56 ft 175 kts 206°
2026-05-07 11:11 25.92072 119.65554 559 ft 182 kts 205°
2026-05-07 11:12 25.90910 119.64942 1255 ft 188 kts 204°
2026-05-07 11:12 25.89698 119.64323 1835 ft 199 kts 205°
2026-05-07 11:12 25.88414 119.63634 2315 ft 218 kts 206°
2026-05-07 11:12 25.87019 119.62861 2920 ft 230 kts 206°
2026-05-07 11:13 25.85506 119.62045 3422 ft 249 kts 205°
2026-05-07 11:13 25.83841 119.61528 4163 ft 257 kts 180°
2026-05-07 11:13 25.82126 119.61953 5069 ft 258 kts 154°
2026-05-07 11:13 25.80675 119.63112 5833 ft 264 kts 134°
2026-05-07 11:14 25.79551 119.64717 6629 ft 267 kts 120°
2026-05-07 11:14 25.78919 119.66651 7372 ft 271 kts 94°
2026-05-07 11:14 25.79102 119.68729 8064 ft 275 kts 70°
2026-05-07 11:14 25.79932 119.70607 8809 ft 277 kts 54°
2026-05-07 11:15 25.81253 119.72161 9489 ft 278 kts 30°
2026-05-07 11:15 25.83042 119.72997 9981 ft 286 kts
2026-05-07 11:15 25.85032 119.73068 10479 ft 294 kts 353°
2026-05-07 11:15 25.87125 119.72845 10905 ft 309 kts 351°
2026-05-07 11:16 25.89319 119.72579 11308 ft 325 kts 351°
2026-05-07 11:16 25.91649 119.72338 11694 ft 341 kts 352°
2026-05-07 11:16 25.94058 119.72138 12069 ft 356 kts 353°
2026-05-07 11:16 25.96602 119.71957 12562 ft 367 kts 353°
2026-05-07 11:17 25.99127 119.71786 13251 ft 370 kts 353°
2026-05-07 11:17 26.01719 119.71607 13953 ft 373 kts 353°
2026-05-07 11:17 26.04307 119.71428 14580 ft 377 kts 353°
2026-05-07 11:17 26.06938 119.71240 15217 ft 380 kts 353°
2026-05-07 11:18 26.09608 119.71046 15862 ft 383 kts 353°
2026-05-07 11:18 26.12263 119.70853 16471 ft 386 kts 353°
2026-05-07 11:18 26.14942 119.70655 17001 ft 391 kts 353°
2026-05-07 11:18 26.17680 119.70453 17602 ft 394 kts 352°
2026-05-07 11:19 26.20436 119.70250 18146 ft 398 kts 353°
2026-05-07 11:19 26.23180 119.70049 18711 ft 400 kts 352°
2026-05-07 11:19 26.25972 119.69846 19225 ft 404 kts 353°
2026-05-07 11:19 26.28801 119.69641 19820 ft 405 kts 352°
2026-05-07 11:20 26.31612 119.69435 20252 ft 411 kts 352°
2026-05-07 11:20 26.34487 119.69225 20759 ft 414 kts 352°
2026-05-07 11:20 26.37380 119.69015 21254 ft 417 kts 352°
2026-05-07 11:20 26.40272 119.68803 21749 ft 419 kts 353°
2026-05-07 11:21 26.43175 119.68592 22220 ft 422 kts 352°
2026-05-07 11:21 26.46126 119.68375 22670 ft 425 kts 352°
2026-05-07 11:21 26.49093 119.68156 23118 ft 428 kts 352°
2026-05-07 11:21 26.52089 119.67934 23613 ft 430 kts 352°
2026-05-07 11:22 26.55056 119.67715 24031 ft 433 kts 352°
2026-05-07 11:22 26.58082 119.67491 24474 ft 436 kts 352°
2026-05-07 11:22 26.61149 119.67265 24551 ft 443 kts 352°
2026-05-07 11:22 26.64204 119.67039 24560 ft 442 kts 352°
2026-05-07 11:23 26.67249 119.66818 24569 ft 436 kts 352°
2026-05-07 11:23 26.70301 119.66599 24570 ft 433 kts 352°
2026-05-07 11:23 26.73278 119.66383 24578 ft 435 kts 352°
2026-05-07 11:23 26.76328 119.66159 24581 ft 437 kts 352°
2026-05-07 11:24 26.79345 119.65934 24583 ft 438 kts 352°
2026-05-07 11:24 26.82447 119.65700 24585 ft 450 kts 352°
2026-05-07 11:24 26.85627 119.65456 24581 ft 463 kts 352°
2026-05-07 11:24 26.88892 119.65207 24577 ft 474 kts 352°
2026-05-07 11:25 26.92195 119.64960 24579 ft 480 kts 352°
2026-05-07 11:25 26.95529 119.64716 24579 ft 477 kts 353°
2026-05-07 11:25 26.98838 119.64474 24575 ft 475 kts 353°
2026-05-07 11:25 27.02126 119.64231 24577 ft 476 kts 353°
2026-05-07 11:26 27.05457 119.63989 24577 ft 478 kts 352°
2026-05-07 11:26 27.08764 119.63745 24585 ft 477 kts 352°
2026-05-07 11:26 27.12090 119.63498 24590 ft 475 kts 352°
2026-05-07 11:26 27.15395 119.63251 24591 ft 475 kts 352°
2026-05-07 11:27 27.18698 119.63006 24595 ft 478 kts 352°
2026-05-07 11:27 27.22033 119.62757 24658 ft 481 kts 352°
2026-05-07 11:27 27.25389 119.62505 25176 ft 480 kts 352°
2026-05-07 11:27 27.28714 119.62251 25552 ft 483 kts 352°
2026-05-07 11:28 27.32090 119.62001 25968 ft 485 kts 352°
2026-05-07 11:28 27.35434 119.61767 26333 ft 488 kts 352°
2026-05-07 11:28 27.38837 119.61537 26828 ft 487 kts 352°
2026-05-07 11:28 27.42221 119.61290 27376 ft 484 kts 351°
2026-05-07 11:29 27.45548 119.61040 28017 ft 480 kts 351°
2026-05-07 11:29 27.48869 119.60792 28693 ft 475 kts 351°
2026-05-07 11:29 27.52149 119.60552 29302 ft 471 kts 351°
2026-05-07 11:29 27.55427 119.60308 29881 ft 468 kts 351°
2026-05-07 11:30 27.58641 119.60046 30490 ft 463 kts 350°
2026-05-07 11:30 27.61825 119.59778 31094 ft 459 kts 350°
2026-05-07 11:30 27.65000 119.59515 31712 ft 454 kts 349°
2026-05-07 11:30 27.68144 119.59272 31978 ft 458 kts 349°
2026-05-07 11:31 27.71362 119.59036 32193 ft 462 kts 350°
2026-05-07 11:31 27.74594 119.58800 32370 ft 466 kts 350°
2026-05-07 11:31 27.77816 119.58560 32517 ft 471 kts 349°
2026-05-07 11:31 27.81109 119.58320 32814 ft 472 kts 349°
2026-05-07 11:32 27.87657 119.57836 33139 ft 472 kts 349°
2026-05-07 11:32 27.90894 119.57599 33140 ft 464 kts 349°
2026-05-07 11:33 27.97262 119.57139 33151 ft 453 kts 349°
2026-05-07 11:33 28.03636 119.56665 33150 ft 459 kts 349°
2026-05-07 11:34 28.10018 119.56197 33135 ft 459 kts 350°
2026-05-07 11:34 28.16439 119.56248 33124 ft 463 kts 355°
2026-05-07 11:35 28.22853 119.56677 33109 ft 464 kts 356°
2026-05-07 11:35 28.29326 119.57129 33098 ft 465 kts 356°
2026-05-07 11:36 28.35796 119.57545 33090 ft 465 kts 355°
2026-05-07 11:36 28.42244 119.57931 33089 ft 464 kts 355°
2026-05-07 11:37 28.48690 119.58295 33084 ft 464 kts 355°
2026-05-07 11:37 28.55140 119.58685 33087 ft 463 kts 356°
2026-05-07 11:38 28.61608 119.59099 33102 ft 463 kts 355°
2026-05-07 11:38 28.68004 119.59502 33108 ft 462 kts 355°
2026-05-07 11:39 28.74453 119.59913 33122 ft 462 kts 355°
2026-05-07 11:39 28.80880 119.60309 33120 ft 462 kts 355°
2026-05-07 11:40 28.87259 119.60696 33105 ft 459 kts 355°
2026-05-07 11:40 28.93657 119.61088 33091 ft 462 kts 355°
2026-05-07 11:41 29.00120 119.61481 33087 ft 463 kts 355°
2026-05-07 11:41 29.06511 119.61880 33083 ft 461 kts 355°
2026-05-07 11:42 29.12942 119.62280 33090 ft 460 kts 355°
2026-05-07 11:42 29.19342 119.62674 33101 ft 460 kts 355°
2026-05-07 11:43 29.25712 119.63042 33105 ft 457 kts 355°
2026-05-07 11:43 29.32064 119.63425 33109 ft 460 kts 355°
2026-05-07 11:44 29.38420 119.63830 33118 ft 457 kts 355°
2026-05-07 11:44 29.44816 119.64217 33121 ft 458 kts 355°
2026-05-07 11:45 29.51156 119.64701 33126 ft 462 kts 360°
2026-05-07 11:45 29.57447 119.66798 33131 ft 482 kts 21°
2026-05-07 11:46 29.63191 119.70859 33132 ft 488 kts 28°
2026-05-07 11:46 29.68801 119.75277 33134 ft 487 kts 28°
2026-05-07 11:47 29.74331 119.79710 33135 ft 489 kts 28°
2026-05-07 11:47 29.79971 119.84159 33134 ft 490 kts 28°
2026-05-07 11:48 29.85577 119.88538 33126 ft 487 kts 28°
2026-05-07 11:48 29.91169 119.92917 33123 ft 490 kts 28°
2026-05-07 11:49 29.96828 119.97338 33115 ft 491 kts 28°
2026-05-07 11:49 30.02457 120.01717 33108 ft 488 kts 28°
2026-05-07 11:50 30.08054 120.06103 33129 ft 487 kts 28°
2026-05-07 11:50 30.13678 120.10489 33124 ft 486 kts 27°
2026-05-07 11:51 30.19299 120.14872 33102 ft 487 kts 28°
2026-05-07 11:51 30.25002 120.19112 33105 ft 485 kts 22°
2026-05-07 11:51 30.28027 120.20679 33115 ft 472 kts 10°
2026-05-07 11:52 30.31214 120.21437 33127 ft 458 kts 357°
2026-05-07 11:52 30.37439 120.20989 33124 ft 442 kts 343°
2026-05-07 11:53 30.43189 120.18993 33112 ft 423 kts 325°
2026-05-07 11:53 30.48010 120.15278 33121 ft 417 kts 317°
2026-05-07 11:54 30.52618 120.11232 33145 ft 414 kts 317°
2026-05-07 11:54 30.57221 120.07233 33133 ft 413 kts 317°
2026-05-07 11:55 30.61838 120.03270 33141 ft 414 kts 318°
2026-05-07 11:55 30.66499 119.99313 33139 ft 413 kts 318°
2026-05-07 11:56 30.71117 119.95397 33145 ft 413 kts 319°
2026-05-07 11:56 30.75746 119.91479 33153 ft 411 kts 319°
2026-05-07 11:57 30.80352 119.87540 33160 ft 410 kts 319°
2026-05-07 11:57 30.84916 119.83622 33170 ft 411 kts 319°
2026-05-07 11:58 30.89514 119.79670 33174 ft 408 kts 319°
2026-05-07 11:58 30.94106 119.75712 33175 ft 411 kts 319°
2026-05-07 11:59 30.98696 119.71758 33178 ft 409 kts 319°
2026-05-07 11:59 31.03263 119.67811 33177 ft 409 kts 319°
2026-05-07 12:00 31.07860 119.63838 33176 ft 410 kts 319°
2026-05-07 12:00 31.12424 119.59896 33174 ft 407 kts 318°
2026-05-07 12:01 31.16962 119.55970 33177 ft 409 kts 319°
2026-05-07 12:01 31.21522 119.52016 33172 ft 406 kts 318°
2026-05-07 12:02 31.26049 119.48086 33176 ft 407 kts 318°
2026-05-07 12:02 31.30584 119.44144 33172 ft 408 kts 318°
2026-05-07 12:03 31.35134 119.40183 33179 ft 407 kts 318°
2026-05-07 12:03 31.39714 119.36189 33180 ft 408 kts 318°
2026-05-07 12:04 31.44273 119.32210 33270 ft 416 kts 317°
2026-05-07 12:04 31.46597 119.30180 33636 ft 415 kts 317°
2026-05-07 12:04 31.48918 119.28155 34095 ft 412 kts 317°
2026-05-07 12:05 31.53527 119.24125 34175 ft 415 kts 317°
2026-05-07 12:05 31.58138 119.20084 34183 ft 411 kts 317°
2026-05-07 12:06 31.62720 119.16023 34183 ft 410 kts 317°
2026-05-07 12:06 31.67221 119.11864 34184 ft 409 kts 314°
2026-05-07 12:07 31.71454 119.07466 34182 ft 409 kts 313°
2026-05-07 12:07 31.75683 119.03027 34176 ft 407 kts 313°
2026-05-07 12:08 31.79973 118.98662 34177 ft 410 kts 316°
2026-05-07 12:08 31.84880 118.95118 34182 ft 418 kts 328°
2026-05-07 12:09 31.90290 118.92518 34185 ft 423 kts 332°
2026-05-07 12:09 31.95813 118.90122 34191 ft 422 kts 332°
2026-05-07 12:10 32.01356 118.87704 34192 ft 422 kts 332°
2026-05-07 12:10 32.06832 118.85274 34195 ft 424 kts 332°
2026-05-07 12:11 32.12358 118.82797 34190 ft 425 kts 332°
2026-05-07 12:11 32.17886 118.80308 34192 ft 424 kts 332°
2026-05-07 12:12 32.23372 118.77833 34197 ft 421 kts 332°
2026-05-07 12:12 32.28915 118.75322 34194 ft 425 kts 332°
2026-05-07 12:13 32.34446 118.72814 34189 ft 425 kts 332°
2026-05-07 12:13 32.39953 118.70319 34194 ft 424 kts 332°
2026-05-07 12:14 32.45459 118.67817 34193 ft 426 kts 332°
2026-05-07 12:14 32.50996 118.65299 34196 ft 424 kts 332°
2026-05-07 12:15 32.56519 118.62793 34193 ft 426 kts 332°
2026-05-07 12:15 32.62074 118.60259 34192 ft 427 kts 332°
2026-05-07 12:16 32.67608 118.57735 34195 ft 427 kts 332°
2026-05-07 12:16 32.73259 118.55518 34200 ft 430 kts 335°
2026-05-07 12:17 32.78998 118.53551 34202 ft 430 kts 336°
2026-05-07 12:17 32.84802 118.51559 34210 ft 431 kts 336°
2026-05-07 12:18 32.90551 118.49544 34212 ft 431 kts 335°
2026-05-07 12:18 32.96308 118.47494 34212 ft 431 kts 335°
2026-05-07 12:19 33.02050 118.45444 34214 ft 430 kts 335°
2026-05-07 12:19 33.07780 118.43381 34217 ft 433 kts 335°
2026-05-07 12:20 33.13541 118.41309 34214 ft 430 kts 335°
2026-05-07 12:20 33.19246 118.39253 34215 ft 430 kts 335°
2026-05-07 12:21 33.24979 118.37163 34218 ft 430 kts 335°
2026-05-07 12:21 33.30764 118.35104 34217 ft 432 kts 336°
2026-05-07 12:22 33.36544 118.33179 34220 ft 430 kts 335°
2026-05-07 12:22 33.42332 118.31213 34219 ft 433 kts 335°
2026-05-07 12:23 33.48090 118.29211 34221 ft 428 kts 335°
2026-05-07 12:23 33.53798 118.27193 34220 ft 427 kts 334°
2026-05-07 12:24 33.59547 118.25138 34224 ft 429 kts 334°
2026-05-07 12:24 33.65208 118.23110 34225 ft 427 kts 334°
2026-05-07 12:25 33.70937 118.21049 34225 ft 429 kts 334°
2026-05-07 12:25 33.76635 118.18996 34222 ft 428 kts 334°
2026-05-07 12:25 33.79484 118.17967 34000 ft 430 kts 334°
2026-05-07 12:26 33.82370 118.16927 33726 ft 426 kts 334°
2026-05-07 12:26 33.85217 118.15904 33456 ft 424 kts 334°
2026-05-07 12:26 33.88056 118.14880 33189 ft 423 kts 334°
2026-05-07 12:26 33.90856 118.13866 32930 ft 426 kts 334°
2026-05-07 12:27 33.93718 118.12830 32667 ft 430 kts 334°
2026-05-07 12:27 34.20228 118.03191 30360 ft 433 kts 334°
2026-05-07 12:27 34.23125 118.02139 30242 ft 432 kts 334°
2026-05-07 12:28 34.28892 118.00037 30238 ft 440 kts 334°
2026-05-07 12:28 34.51306 117.91869 30239 ft 442 kts 334°
2026-05-07 12:29 34.57169 117.89727 30243 ft 435 kts 334°
2026-05-07 12:29 34.62993 117.87575 30245 ft 439 kts 334°
2026-05-07 12:30 34.68807 117.85422 30247 ft 439 kts 334°
2026-05-07 12:30 34.74630 117.83279 30247 ft 434 kts 334°
2026-05-07 12:31 34.80417 117.81142 30250 ft 438 kts 334°
2026-05-07 12:31 34.86216 117.78987 30252 ft 433 kts 333°
2026-05-07 12:32 34.91976 117.76833 30251 ft 433 kts 334°
2026-05-07 12:32 34.97737 117.74701 30255 ft 433 kts 334°
2026-05-07 12:33 35.06368 117.71527 30254 ft 434 kts 334°
2026-05-07 12:33 35.12159 117.69405 30258 ft 432 kts 334°
2026-05-07 12:34 35.17923 117.67290 30256 ft 432 kts 334°
2026-05-07 12:34 35.23644 117.65189 30258 ft 431 kts 333°
2026-05-07 12:35 35.29407 117.63068 30259 ft 431 kts 333°
2026-05-07 12:35 35.35148 117.60954 30258 ft 430 kts 333°
2026-05-07 12:36 35.40897 117.58821 30260 ft 433 kts 333°
2026-05-07 12:36 35.46625 117.56700 30261 ft 429 kts 333°
2026-05-07 12:37 35.52351 117.54583 30258 ft 429 kts 333°
2026-05-07 12:37 35.58070 117.52466 30260 ft 429 kts 333°
2026-05-07 12:38 35.63773 117.50349 30258 ft 430 kts 332°
2026-05-07 12:38 35.69490 117.48223 30259 ft 427 kts 333°
2026-05-07 12:39 35.75177 117.46100 30258 ft 431 kts 332°
2026-05-07 12:39 35.80885 117.43970 30256 ft 427 kts 332°
2026-05-07 12:40 35.86603 117.41837 30261 ft 429 kts 332°
2026-05-07 12:40 35.92252 117.39733 30260 ft 425 kts 332°
2026-05-07 12:41 35.97920 117.37607 30258 ft 426 kts 332°
2026-05-07 12:41 36.03582 117.35487 30257 ft 425 kts 332°
2026-05-07 12:42 36.09226 117.33399 30254 ft 422 kts 332°
2026-05-07 12:42 36.14793 117.31354 30250 ft 413 kts 331°
2026-05-07 12:43 36.20277 117.29333 30251 ft 410 kts 330°
2026-05-07 12:43 36.25749 117.27282 30250 ft 410 kts 331°
2026-05-07 12:44 36.31166 117.25291 30254 ft 404 kts 331°
2026-05-07 12:44 36.36605 117.23255 30253 ft 409 kts 330°
2026-05-07 12:45 36.41981 117.21228 30264 ft 405 kts 329°
2026-05-07 12:45 36.47163 117.18748 30254 ft 394 kts 324°
2026-05-07 12:46 36.52178 117.16018 30260 ft 391 kts 324°
2026-05-07 12:46 36.57196 117.13320 30255 ft 395 kts 324°
2026-05-07 12:47 36.62262 117.10672 30255 ft 392 kts 325°
2026-05-07 12:47 36.67293 117.08047 30248 ft 394 kts 324°
2026-05-07 12:48 36.72321 117.05428 30250 ft 391 kts 324°
2026-05-07 12:48 36.77336 117.02814 30248 ft 391 kts 325°
2026-05-07 12:49 36.82354 117.00179 30251 ft 389 kts 324°
2026-05-07 12:49 36.87333 116.97560 30249 ft 390 kts 324°
2026-05-07 12:50 36.92286 116.94938 30252 ft 384 kts 324°
2026-05-07 12:50 36.97239 116.92336 30252 ft 391 kts 324°
2026-05-07 12:51 37.02256 116.89704 30252 ft 387 kts 324°
2026-05-07 12:51 37.07187 116.87110 30258 ft 385 kts 324°
2026-05-07 12:52 37.09666 116.85792 30029 ft 391 kts 324°
2026-05-07 12:52 37.12150 116.84469 29646 ft 393 kts 325°
2026-05-07 12:52 37.14673 116.83140 29277 ft 389 kts 326°
2026-05-07 12:52 37.17163 116.81839 28931 ft 385 kts 326°
2026-05-07 12:53 37.19598 116.80554 28580 ft 385 kts 326°
2026-05-07 12:53 37.22087 116.79279 28279 ft 390 kts 329°
2026-05-07 12:53 37.24676 116.78144 27959 ft 397 kts 332°
2026-05-07 12:53 37.27366 116.77111 27592 ft 403 kts 334°
2026-05-07 12:54 37.30051 116.76134 27245 ft 402 kts 335°
2026-05-07 12:54 37.32719 116.75177 26907 ft 399 kts 335°
2026-05-07 12:54 37.35377 116.74215 26573 ft 397 kts 335°
2026-05-07 12:54 37.38022 116.73241 26223 ft 397 kts 335°
2026-05-07 12:55 37.40653 116.72236 25890 ft 399 kts 335°
2026-05-07 12:55 37.43307 116.71222 25526 ft 402 kts 336°
2026-05-07 12:55 37.45977 116.70213 25199 ft 401 kts 336°
2026-05-07 12:55 37.48645 116.69213 24858 ft 398 kts 337°
2026-05-07 12:56 37.51273 116.68220 24521 ft 392 kts 337°
2026-05-07 12:56 37.53865 116.67243 24149 ft 387 kts 338°
2026-05-07 12:56 37.56444 116.66270 23827 ft 377 kts 338°
2026-05-07 12:56 37.58894 116.65351 23741 ft 361 kts 338°
2026-05-07 12:57 37.61258 116.64469 23747 ft 349 kts 338°
2026-05-07 12:57 37.63580 116.63593 23739 ft 346 kts 338°
2026-05-07 12:57 37.65896 116.62700 23746 ft 354 kts 338°
2026-05-07 12:57 37.68292 116.61764 23742 ft 361 kts 338°
2026-05-07 12:58 37.70697 116.60828 23729 ft 362 kts 338°
2026-05-07 12:58 37.73083 116.59913 23730 ft 360 kts 338°
2026-05-07 12:58 37.75481 116.58999 23739 ft 359 kts 338°
2026-05-07 12:58 37.77884 116.58083 23749 ft 359 kts 338°
2026-05-07 12:59 37.80283 116.57202 23740 ft 362 kts 341°
2026-05-07 12:59 37.82789 116.56760 23736 ft 371 kts 354°
2026-05-07 12:59 37.85371 116.57261 23733 ft 383 kts
2026-05-07 12:59 37.87912 116.58337 23742 ft 391 kts 12°
2026-05-07 13:00 37.90442 116.59612 23746 ft 393 kts 14°
2026-05-07 13:00 37.92984 116.60951 23733 ft 391 kts 13°
2026-05-07 13:00 37.95497 116.62235 23729 ft 389 kts 13°
2026-05-07 13:00 37.97993 116.63461 23703 ft 384 kts 12°
2026-05-07 13:01 38.00472 116.64651 23046 ft 385 kts 13°
2026-05-07 13:01 38.02969 116.65821 22421 ft 382 kts 13°
2026-05-07 13:01 38.05433 116.66967 21908 ft 377 kts 13°
2026-05-07 13:01 38.07900 116.68107 21321 ft 374 kts 13°
2026-05-07 13:02 38.10328 116.69224 20689 ft 372 kts 13°
2026-05-07 13:02 38.12756 116.70341 20187 ft 368 kts 14°
2026-05-07 13:02 38.15134 116.71435 19590 ft 365 kts 14°
2026-05-07 13:02 38.17500 116.72521 19005 ft 362 kts 14°
2026-05-07 13:03 38.19879 116.73615 18370 ft 359 kts 15°
2026-05-07 13:03 38.22194 116.74683 17706 ft 354 kts 15°
2026-05-07 13:03 38.24480 116.75738 16935 ft 351 kts 15°
2026-05-07 13:03 38.26762 116.76792 16157 ft 348 kts 16°
2026-05-07 13:04 38.29039 116.77841 15244 ft 351 kts 16°
2026-05-07 13:04 38.31325 116.78894 14383 ft 349 kts 17°
2026-05-07 13:04 38.33578 116.79934 13629 ft 344 kts 17°
2026-05-07 13:04 38.35789 116.80957 12885 ft 339 kts 17°
2026-05-07 13:05 38.37978 116.81971 12222 ft 333 kts 17°
2026-05-07 13:05 38.40120 116.82966 11952 ft 315 kts 17°
2026-05-07 13:05 38.42100 116.83888 11918 ft 292 kts 16°
2026-05-07 13:05 38.43940 116.84747 11916 ft 272 kts 16°
2026-05-07 13:06 38.45667 116.85548 11922 ft 260 kts 16°
2026-05-07 13:06 38.47354 116.86326 11803 ft 255 kts 15°
2026-05-07 13:06 38.49038 116.87099 11047 ft 265 kts 16°
2026-05-07 13:06 38.50795 116.87908 10481 ft 265 kts 16°
2026-05-07 13:07 38.52502 116.88702 9976 ft 263 kts 16°
2026-05-07 13:07 38.54230 116.89505 9424 ft 263 kts 16°
2026-05-07 13:07 38.55936 116.90300 8944 ft 262 kts 16°
2026-05-07 13:07 38.57639 116.91093 8531 ft 262 kts 17°
2026-05-07 13:08 38.59343 116.91886 8164 ft 261 kts 17°
2026-05-07 13:08 38.61049 116.92681 7925 ft 255 kts 17°
2026-05-07 13:08 38.62690 116.93449 7913 ft 252 kts 17°
2026-05-07 13:08 38.64239 116.94556 7904 ft 265 kts 39°
2026-05-07 13:09 38.65421 116.96372 7912 ft 263 kts 51°
2026-05-07 13:09 38.66406 116.98289 7842 ft 251 kts 52°
2026-05-07 13:09 38.67370 117.00114 7556 ft 249 kts 50°
2026-05-07 13:09 38.68389 117.01915 7259 ft 247 kts 49°
2026-05-07 13:10 38.69418 117.03665 6962 ft 247 kts 48°
2026-05-07 13:10 38.70446 117.05403 6663 ft 246 kts 48°
2026-05-07 13:10 38.71470 117.07137 6363 ft 244 kts 49°
2026-05-07 13:10 38.72499 117.08884 6062 ft 243 kts 49°
2026-05-07 13:11 38.73510 117.10601 5764 ft 243 kts 49°
2026-05-07 13:11 38.74514 117.12309 5471 ft 242 kts 49°
2026-05-07 13:11 38.75541 117.14054 5166 ft 242 kts 49°
2026-05-07 13:11 38.76546 117.15762 4869 ft 241 kts 50°
2026-05-07 13:12 38.77543 117.17459 4570 ft 239 kts 50°
2026-05-07 13:12 38.78549 117.19172 4272 ft 238 kts 50°
2026-05-07 13:12 38.79542 117.20863 3974 ft 238 kts 50°
2026-05-07 13:12 38.80518 117.22527 3679 ft 236 kts 50°
2026-05-07 13:13 38.81502 117.24204 3387 ft 235 kts 50°
2026-05-07 13:13 38.82477 117.25870 3134 ft 232 kts 50°
2026-05-07 13:13 38.83441 117.27517 2881 ft 229 kts 51°
2026-05-07 13:13 38.84391 117.29138 2632 ft 226 kts 51°
2026-05-07 13:14 38.85328 117.30740 2383 ft 224 kts 51°
2026-05-07 13:14 38.86256 117.32327 2135 ft 221 kts 51°
2026-05-07 13:14 38.87164 117.33880 2006 ft 213 kts 51°
2026-05-07 13:14 38.88034 117.35372 2021 ft 204 kts 51°
2026-05-07 13:15 38.88894 117.36845 2001 ft 208 kts 51°
2026-05-07 13:15 38.89767 117.38341 2003 ft 210 kts 51°
2026-05-07 13:15 38.90643 117.39841 2002 ft 210 kts 51°
2026-05-07 13:15 38.91518 117.41340 2001 ft 210 kts 51°
2026-05-07 13:16 38.92390 117.42835 2002 ft 210 kts 51°
2026-05-07 13:16 38.93389 117.44177 1994 ft 208 kts 30°
2026-05-07 13:16 38.94731 117.44820 2003 ft 203 kts 13°
2026-05-07 13:16 38.96077 117.45205 1990 ft 188 kts 12°
2026-05-07 13:17 38.97303 117.45548 1992 ft 173 kts 12°
2026-05-07 13:17 38.98459 117.45510 1991 ft 166 kts 340°
2026-05-07 13:17 38.99514 117.44948 2048 ft 165 kts 340°
2026-05-07 13:17 39.00612 117.44376 1997 ft 170 kts 339°
2026-05-07 13:18 39.01683 117.43773 1992 ft 163 kts 337°
2026-05-07 13:18 39.02683 117.43187 1917 ft 158 kts 337°
2026-05-07 13:18 39.03672 117.42602 1747 ft 152 kts 337°
2026-05-07 13:18 39.04612 117.42037 1499 ft 143 kts 336°
2026-05-07 13:19 39.05476 117.41515 1332 ft 138 kts 336°
2026-05-07 13:19 39.06357 117.41001 1160 ft 139 kts 337°
2026-05-07 13:19 39.07245 117.40482 961 ft 141 kts 335°
2026-05-07 13:19 39.08124 117.39945 786 ft 140 kts 336°
2026-05-07 13:20 39.09015 117.39414 592 ft 141 kts 335°
2026-05-07 13:20 39.09905 117.38867 395 ft 143 kts 333°
2026-05-07 13:20 39.10806 117.38316 223 ft 142 kts 334°
2026-05-07 13:20 39.11706 117.37759 33 ft 141 kts 332°
2026-05-07 13:21 39.12441 117.37302 19 ft 85 kts 333°
2026-05-07 13:21 39.12788 117.37091 19 ft 28 kts 333°
2026-05-07 13:21 39.12934 117.36943 19 ft 25 kts 313°
2026-05-07 13:21 39.13005 117.36796 19 ft 16 kts 262°
2026-05-07 13:22 39.12943 117.36768 19 ft 9 kts 160°
2026-05-07 13:22 39.12854 117.36818 19 ft 17 kts 155°
2026-05-07 13:22 39.12744 117.36861 19 ft 15 kts 200°
2026-05-07 13:22 39.12691 117.36751 19 ft 14 kts 244°
2026-05-07 13:23 39.12651 117.36641 19 ft 13 kts 244°
2026-05-07 13:23 39.12612 117.36540 19 ft 12 kts 243°
2026-05-07 13:23 39.12580 117.36448 19 ft 9 kts 263°
2026-05-07 13:23 39.12610 117.36382 19 ft 7 kts 329°
2026-05-07 13:24 39.12654 117.36358 19 ft 6 kts 336°
2026-05-07 13:24 39.12682 117.36324 19 ft 6 kts 291°
2026-05-07 13:24 39.12666 117.36275 19 ft 6 kts 225°
2026-05-07 13:24 39.12637 117.36243 19 ft 5 kts 218°
2026-05-07 13:25 39.12619 117.36209 19 ft 6 kts 261°
2026-05-07 13:25 39.12616 117.36156 19 ft 4 kts 267°
2026-05-07 13:25 39.12615 117.36129 19 ft 2 kts 267°
2026-05-07 13:25 39.12615 117.36121 19 ft 0 kts 267°